Minneapolis, MN

11:44 AM CST on February 21, 2017 (GMT -0600)
Crystal

Weather History for KMIC - September, 2013

Change the Weather History Date:

Sunday, September 15, 2013

  Actual Average Record
Temperature  
Mean Temperature 58 °F -  
Max Temperature 66 °F 71 °F 88 °F (2015)
Min Temperature 46 °F 50 °F 30 °F (2007)
Degree Days  
Heating Degree Days 7    
Growing Degree Days 8 (Base 50)    
Moisture  
Dew Point 53 °F    
Average Humidity 81    
Maximum Humidity 94    
Minimum Humidity 60    
Precipitation  
Precipitation 0.15 in - - ()
Sea Level Pressure  
Sea Level Pressure 30.07 in    
Wind  
Wind Speed 7 mph (NNE)    
Max Wind Speed 14 mph    
Max Gust Speed 20 mph    
Visibility 9 miles    
Events Rain    
Averages and records for this station are not official NWS values.
T = Trace of Precipitation, MM = Missing Value Source: NWS Daily Summary

Daily Weather History Graph

Daily Weather History Graph

Search for Another Location

Airport or City:

Trip Planner

Search our weather history database for the weather conditions in past years. The results will help you decide how hot, cold, wet, or windy it might be!

Date:

Astronomy

Sep. 15, 2013 Rise Set
Actual Time 6:52 AM CDT 7:23 PM CDT
Civil Twilight 6:22 AM CDT 7:53 PM CDT
Nautical Twilight 5:47 AM CDT 8:28 PM CDT
Astronomical Twilight 5:11 AM CDT 9:04 PM CDT
Moon 4:59 PM CDT (9/15) 2:21 AM CDT (9/15)
Length of Visible Light 13h 30m
Length of Day
12h 31m
Waxing Gibbous, 82% of the Moon is Illuminated
Sep 15
Waxing Gibbous
Sep 19
Full
Sep 26
Last Quarter
Oct 4
New
Oct 11
First Quarter

Hourly Weather History & Observations

Time (CDT) Temp. Dew Point Humidity Pressure Visibility Wind Dir Wind Speed Gust Speed Precip Events Conditions
12:18 AM 57.2 °F 53.6 °F 88% 29.90 in 8.0 mi SE 6.9 mph - N/A   Overcast
12:53 AM 57.0 °F 54.0 °F 89% 29.88 in 5.0 mi SE 9.2 mph - 0.00 in   Overcast
1:53 AM 57.0 °F 55.0 °F 93% 29.88 in 4.0 mi SE 3.5 mph - 0.01 in Rain Light Rain
2:53 AM 57.0 °F 55.0 °F 93% 29.88 in 6.0 mi ENE 3.5 mph - 0.04 in Rain Light Rain
3:53 AM 57.9 °F 55.0 °F 90% 29.90 in 4.0 mi Calm Calm - 0.03 in Rain Light Rain
4:15 AM 57.2 °F 55.4 °F 94% 29.90 in 4.0 mi NE 4.6 mph - 0.03 in Rain Rain
4:26 AM 57.2 °F 55.4 °F 94% 29.91 in 4.0 mi Calm Calm - 0.04 in Rain Light Rain
4:53 AM 57.0 °F 55.0 °F 93% 29.91 in 4.0 mi NNE 4.6 mph - 0.07 in Rain Light Rain
5:33 AM 57.2 °F 55.4 °F 94% 29.93 in 8.0 mi NNE 5.8 mph - 0.00 in   Overcast
5:53 AM 57.0 °F 55.0 °F 93% 29.94 in 8.0 mi NNE 5.8 mph - 0.00 in   Overcast
6:25 AM 57.2 °F 55.4 °F 94% 29.95 in 9.0 mi NNE 5.8 mph - N/A   Overcast
6:48 AM 57.2 °F 55.4 °F 94% 29.96 in 10.0 mi NNE 6.9 mph - N/A   Overcast
6:53 AM 57.0 °F 54.0 °F 89% 29.97 in 10.0 mi NNE 6.9 mph - N/A   Overcast
7:53 AM 57.0 °F 54.0 °F 89% 29.99 in 10.0 mi North 5.8 mph - N/A   Overcast
8:21 AM 57.2 °F 53.6 °F 88% 30.00 in 10.0 mi North 8.1 mph - N/A   Overcast
8:53 AM 57.9 °F 54.0 °F 87% 30.02 in 10.0 mi NNE 9.2 mph - N/A   Overcast
9:53 AM 59.0 °F 54.0 °F 83% 30.06 in 10.0 mi North 10.4 mph - N/A   Overcast
10:15 AM 60.8 °F 53.6 °F 77% 30.06 in 10.0 mi NNE 10.4 mph 17.3 mph N/A   Overcast
10:53 AM 61.0 °F 54.0 °F 78% 30.08 in 10.0 mi NNE 6.9 mph - N/A   Overcast
11:53 AM 61.0 °F 53.1 °F 75% 30.11 in 10.0 mi NNE 9.2 mph - N/A   Overcast
12:53 PM 61.0 °F 54.0 °F 78% 30.13 in 10.0 mi North 8.1 mph - N/A   Overcast
1:05 PM 60.8 °F 53.6 °F 77% 30.12 in 10.0 mi North 10.4 mph - N/A   Overcast
1:53 PM 64.0 °F 54.0 °F 70% 30.14 in 10.0 mi North 8.1 mph - N/A   Overcast
2:27 PM 64.4 °F 53.6 °F 68% 30.14 in 10.0 mi North 13.8 mph - N/A   Overcast
2:53 PM 64.0 °F 54.0 °F 70% 30.16 in 10.0 mi NNE 10.4 mph - N/A   Overcast
3:53 PM 64.0 °F 53.1 °F 67% 30.17 in 10.0 mi North 13.8 mph 19.6 mph N/A   Overcast
4:15 PM 64.4 °F 53.6 °F 68% 30.17 in 10.0 mi NNE 9.2 mph 19.6 mph N/A   Mostly Cloudy
4:53 PM 64.9 °F 51.1 °F 61% 30.19 in 10.0 mi NE 11.5 mph - N/A   Clear
5:53 PM 64.0 °F 50.0 °F 60% 30.20 in 10.0 mi ENE 12.7 mph - N/A   Scattered Clouds
6:53 PM 61.0 °F 48.9 °F 64% 30.23 in 10.0 mi NE 10.4 mph - N/A   Partly Cloudy
7:53 PM 57.0 °F 48.0 °F 72% 30.25 in 10.0 mi NE 4.6 mph - N/A   Clear
8:53 PM 55.0 °F 48.0 °F 77% 30.28 in 10.0 mi NE 3.5 mph - N/A   Clear
9:53 PM 53.1 °F 46.0 °F 77% 30.30 in 10.0 mi ENE 4.6 mph - N/A   Clear
10:53 PM 52.0 °F 44.1 °F 74% 30.32 in 10.0 mi ENE 4.6 mph - N/A   Clear
11:53 PM 46.9 °F 44.1 °F 90% 30.33 in 10.0 mi Calm Calm - N/A   Clear